Location: Cisewo
(53.3833°N, 14.9000°E)
Time: 11:20:11
(UTC+00:00)

Cosmos 1869 Rocket - Pass Details

Date: 18 April 2021
Orbit: 603 x 634 km, 82.5° (Epoch: 14 May)

Event Time Altitude Azimuth Distance (km) Brightness Sun altitude
Rises 23:37:48 0° 349° (N) 2,907 8.1 -24.9°
Reaches altitude 10° 23:40:03 10° 350° (N) 1,991 7.1 -24.9°
Enters shadow 23:44:18 80° 37° (NE) 630 3.5 -24.7°
